TimeCST,TemperatureF,Dew PointF,Humidity,Sea Level PressureIn,VisibilityMPH,Wind Direction,Wind SpeedMPH,Gust SpeedMPH,PrecipitationIn,Events,Conditions,WindDirDegrees,DateUTC
12:53 AM,36.0,27.0,70,30.34,10.0,South,9.2,-,N/A,,Clear,190,2012-11-15 06:53:00
1:53 AM,35.1,27.0,72,30.33,10.0,South,8.1,-,N/A,,Clear,180,2012-11-15 07:53:00
2:53 AM,34.0,28.0,79,30.34,10.0,South,8.1,-,N/A,,Clear,190,2012-11-15 08:53:00
3:53 AM,34.0,27.0,75,30.33,10.0,South,8.1,-,N/A,,Clear,190,2012-11-15 09:53:00
4:53 AM,34.0,28.0,79,30.33,10.0,South,5.8,-,N/A,,Clear,190,2012-11-15 10:53:00
5:53 AM,32.0,28.0,85,30.34,10.0,South,5.8,-,N/A,,Clear,190,2012-11-15 11:53:00
6:53 AM,32.0,27.0,82,30.35,10.0,South,5.8,-,N/A,,Clear,190,2012-11-15 12:53:00
7:53 AM,34.0,28.9,82,30.36,9.0,South,5.8,-,N/A,,Clear,190,2012-11-15 13:53:00
8:53 AM,37.9,30.0,73,30.36,10.0,South,8.1,-,N/A,,Clear,190,2012-11-15 14:53:00
9:53 AM,41.0,30.0,65,30.37,10.0,South,4.6,-,N/A,,Clear,190,2012-11-15 15:53:00
10:53 AM,46.0,30.0,54,30.36,10.0,South,5.8,-,N/A,,Clear,180,2012-11-15 16:53:00
11:53 AM,48.9,30.9,50,30.35,9.0,SSW,5.8,-,N/A,,Clear,210,2012-11-15 17:53:00
12:53 PM,52.0,33.1,49,30.32,10.0,SW,8.1,-,N/A,,Clear,220,2012-11-15 18:53:00
1:53 PM,54.0,30.9,41,30.31,9.0,South,9.2,-,N/A,,Clear,190,2012-11-15 19:53:00
2:53 PM,54.0,30.9,41,30.30,10.0,SSW,9.2,-,N/A,,Mostly Cloudy,200,2012-11-15 20:53:00
3:53 PM,52.0,33.1,49,30.32,3.0,SSW,6.9,-,N/A,,Haze,210,2012-11-15 21:53:00
4:53 PM,51.1,28.9,43,30.32,10.0,SSW,5.8,-,N/A,,Clear,200,2012-11-15 22:53:00
5:53 PM,46.0,30.0,54,30.32,10.0,South,4.6,-,N/A,,Clear,190,2012-11-15 23:53:00
6:53 PM,43.0,28.9,58,30.34,10.0,South,4.6,-,N/A,,Clear,190,2012-11-16 00:53:00
7:53 PM,45.0,28.9,53,30.35,10.0,SSW,4.6,-,N/A,,Clear,200,2012-11-16 01:53:00
8:53 PM,41.0,28.9,62,30.35,8.0,SSW,4.6,-,N/A,,Clear,200,2012-11-16 02:53:00
9:53 PM,42.1,28.9,60,30.36,3.0,SSW,3.5,-,N/A,,Haze,200,2012-11-16 03:53:00
10:53 PM,39.9,28.9,65,30.37,9.0,SW,4.6,-,N/A,,Clear,220,2012-11-16 04:53:00
11:53 PM,39.0,28.9,67,30.38,10.0,Calm,Calm,-,N/A,,Clear,0,2012-11-16 05:53:00